Regional Weather Roundup
Issued by NWS

Home | Current Version | Previous Version | Graphics & Text | Print | Product List | Glossary On
Versions: 1 2 3 4 5 6 7 8 9 10 11 12 13 14 15 16 17 18 19 20 21 22 23 24 25 26 27 28 29 30 31 32 33 34 35 36 37 38 39 40 41 42 43 44 45 46 47 48 49 50
000
ASUS43 KDMX 201407
RWRIA

WEATHER ROUNDUP FOR IOWA
NATIONAL WEATHER SERVICE DES MOINES IA
900 AM CDT MON OCT 20 2014

NOTE: "FAIR" INDICATES FEW OR NO CLOUDS BELOW 12,000 FEET WITH NO
SIGNIFICANT WEATHER AND/OR OBSTRUCTIONS TO VISIBILITY.

* - THESE STATIONS ARE NOT NWS STATIONS...THUS NOT UNDER NWS
QUALITY CONTROL.  THEY ALSO DO NOT REPORT WEATHER SUCH
AS PRECIPITATION OR FOG.

IAZ001>003-012>014-020>022-031>034-043>046-201500-
   NORTHWEST IOWA

CITY           SKY/WX    TMP DP  RH WIND       PRES   REMARKS
CARROLL *      SUNNY     48  43  81 W5        30.06R
CHEROKEE *     SUNNY     37  37 100 CALM      30.08R
DENISON *      SUNNY     43  43 100 CALM      30.06R
LE MARS *      SUNNY     39  37  93 CALM      30.09R
ORANGE CITY *  SUNNY     45  39  81 NW6       30.08R
SHELDON *      SUNNY     43  41  93 NW6       30.07R
SIOUX CITY     SUNNY     45  41  86 W6        30.10R
SPENCER        SUNNY     45  40  82 W6        30.07R
STORM LAKE *   SUNNY     48  39  71 NW8       30.07R
$$

IAZ055>058-069>071-079>083-090>094-201500-
   SOUTHWEST IOWA

CITY           SKY/WX    TMP DP  RH WIND       PRES   REMARKS
ATLANTIC *     SUNNY     45  43  93 CALM      30.06R
AUDUBON *      SUNNY     46  41  81 CALM      30.06R
CLARINDA *     SUNNY     48  48 100 CALM      30.08R
COUNCIL BLFS * SUNNY     50  46  87 CALM      30.07R
CRESTON *      SUNNY     52  43  71 N9        30.05R
HARLAN  *      SUNNY     46  45  93 NE3       30.10R
LAMONI         SUNNY     52  45  77 N10       30.04R
RED OAK *      SUNNY     48  46  93 CALM      30.07R
SHENANDOAH *   SUNNY     46  46 100 CALM      30.08R
$$

IAZ047>049-059>061-072>074-084-201500-
   CENTRAL IOWA

CITY           SKY/WX    TMP DP  RH WIND       PRES   REMARKS
AMES           SUNNY     51  42  71 NW5       30.03R
ANKENY *       SUNNY     52  43  71 NW7       30.03R
CHARITON *     SUNNY     52  45  76 NW7       30.03R
DES MOINES     SUNNY     50  43  77 NW6       30.04R
GRINNELL*      SUNNY     48  43  81 NW8       30.02R
KNOXVILLE *    SUNNY     50  45  81 NW6       30.02R
MARSHALLTOWN   SUNNY     47  43  86 NW7       30.01R
PELLA *        SUNNY     50  45  81 NW5       30.04R
PERRY *          N/A     48  45  87 CALM      30.05R
$$

IAZ004>006-015-016-023>025-035-036-201500-
   NORTH CENTRAL IOWA

CITY           SKY/WX    TMP DP  RH WIND       PRES   REMARKS
ALGONA *       SUNNY     48  41  76 NW7       30.04R
CLARION *      SUNNY     43  43 100 CALM      30.03R
ESTHERVILLE    SUNNY     48  39  71 NW9       30.04R
FORT DODGE *   SUNNY     45  39  81 W3        30.05R
MASON CITY     SUNNY     48  42  80 NW10      30.02R
FOREST CITY *  SUNNY     50  43  76 W6        30.01S
IOWA FALLS *     N/A     46  41  81 NW7       30.03R
$$

IAZ007>011-017>019-026>030-037>042-050>054-066-201500-
   NORTHEAST IOWA

CITY           SKY/WX    TMP DP  RH WIND       PRES   REMARKS
CEDAR RAPIDS   SUNNY     48  45  89 NW9       29.97R
CHARLES CITY * SUNNY     46  43  87 W8        30.00R
CLINTON *      SUNNY     52  43  71 NW9       29.94R
DECORAH *      SUNNY     48  43  81 VRB6      29.96R
DUBUQUE        SUNNY     51  43  74 N16       29.93R
MONTICELLO *   SUNNY     50  45  81 NW9       29.94R
OELWEIN *      SUNNY     48  45  87 NW8       29.98R
WATERLOO       SUNNY     48  42  80 NW7       29.99R
$$

IAZ064-065-067-068-078-201500-
   EAST CENTRAL IOWA

CITY           SKY/WX    TMP DP  RH WIND       PRES   REMARKS
DAVENPORT      SUNNY     50  43  77 NW9       29.94R
IOWA CITY      SUNNY     50  44  80 NW10      29.98R
MT. PLEASANT * SUNNY     52  43  71 NW8       29.98R
MUSCATINE *    SUNNY     52  45  76 NW10      29.96R
QUAD CITIES    SUNNY     53  44  71 NW13      29.93R
$$

IAZ062-063-075>077-085>089-095>099-201500-
   SOUTHEAST IOWA

CITY           SKY/WX    TMP DP  RH WIND       PRES   REMARKS
BURLINGTON     SUNNY     53  45  74 N10       29.96R
FAIRFIELD *    SUNNY     52  45  76 NW9       30.00R
FORT MADISON * SUNNY     55  48  76 NW6       29.98R
KEOKUK *       SUNNY     55  46  71 N9G15     29.97R
OSKALOOSA *      N/A     50  45  81 NW8       30.02R
CENTERVILLE *  SUNNY     52  46  82 NW6       30.04R
OTTUMWA        SUNNY     51  43  74 NW12      30.01R
WASHINGTON *   SUNNY     52  46  82 NW10      29.98R
$$

ABBREVIATIONS USED IN REMARKS
   TC - TEMPERATURES IN CELSIUS
  WCI - WIND CHILL INDEX
   HX - HEAT INDEX
  VSB - VISIBILITY
$$



USA.gov is the U.S. government's official web portal to all federal, state and local government web resources and services.